Saint Cloud, MN

10:35 PM CDT on September 27, 2016 (GMT -0500)
Saint Cloud Regional

Weather History for KSTC - November, 2013

Change the Weather History Date:

Monday, November 25, 2013

  Actual Average Record
Temperature  
Mean Temperature 33 °F 25 °F  
Max Temperature 38 °F 33 °F 58 °F (1914)
Min Temperature 27 °F 16 °F -13 °F (1977)
Degree Days  
Heating Degree Days 32 40  
Month to date heating degree days 843 830  
Since 1 July heating degree days 1635 1715  
Cooling Degree Days 0 0  
Month to date cooling degree days 0 0  
Year to date cooling degree days 578 465  
Moisture  
Dew Point 21 °F    
Average Humidity 65    
Maximum Humidity 78    
Minimum Humidity 52    
Precipitation  
Precipitation 0.00 in 0.04 in 1.40 in (1896)
Month to date precipitation 0.53 1.19  
Year to date precipitation 27.07 26.72  
Snow  
Snow 0.00 in 0.30 in 7.80 in (1993)
Month to date snowfall 2.8 6.6  
Since 1 July snowfall 3.6 7.4  
Since 1 September snowfall 3.6 7.4  
Snow Depth 0.00 in    
Sea Level Pressure  
Sea Level Pressure 30.02 in    
Wind  
Wind Speed 14 mph (WNW)    
Max Wind Speed 28 mph    
Max Gust Speed 35 mph    
Visibility 10 miles    
Events      
T = Trace of Precipitation, MM = Missing Value Source: NWS Daily Summary

Daily Weather History Graph

Daily Weather History Graph

Search for Another Location

Airport or City:

Trip Planner

Search our weather history database for the weather conditions in past years. The results will help you decide how hot, cold, wet, or windy it might be!

Date:

Astronomy

Nov. 25, 2013 Rise Set
Actual Time 7:29 AM CST 4:37 PM CST
Civil Twilight 6:56 AM CST 5:10 PM CST
Nautical Twilight 6:19 AM CST 5:46 PM CST
Astronomical Twilight 5:43 AM CST 6:22 PM CST
Moon No Moon Rise 12:34 PM CST (11/25)
Length of Visible Light 10h 14m
Length of Day
9h 08m
Waning Gibbous, 51% of the Moon is Illuminated
Nov 25
Waning Gibbous
Nov 25
Last Quarter
Dec 2
New
Dec 9
First Quarter
Dec 17
Full

Hourly Weather History & Observations

Time (CST) Temp. Windchill Dew Point Humidity Pressure Visibility Wind Dir Wind Speed Gust Speed Precip Events Conditions
12:53 AM 32.0 °F 19.8 °F 19.9 °F 61% 29.91 in 10.0 mi SSW 20.7 mph 29.9 mph N/A   Overcast
1:53 AM 30.9 °F 20.2 °F 19.9 °F 64% 29.91 in 10.0 mi SSW 15.0 mph 20.7 mph N/A   Partly Cloudy
2:53 AM 30.0 °F 20.0 °F 21.0 °F 69% 29.91 in 10.0 mi SW 12.7 mph - N/A   Clear
3:53 AM 30.0 °F 21.7 °F 21.9 °F 72% 29.90 in 10.0 mi SW 9.2 mph - N/A   Clear
4:53 AM 28.9 °F 21.9 °F 23.0 °F 78% 29.91 in 10.0 mi WSW 6.9 mph - N/A   Clear
5:53 AM 30.9 °F 21.7 °F 25.0 °F 79% 29.93 in 10.0 mi West 11.5 mph - N/A   Clear
6:53 AM 30.0 °F 21.7 °F 24.1 °F 79% 29.95 in 10.0 mi West 9.2 mph - N/A   Partly Cloudy
7:53 AM 30.0 °F 21.7 °F 25.0 °F 82% 29.97 in 10.0 mi West 9.2 mph - N/A   Mostly Cloudy
8:53 AM 32.0 °F 22.1 °F 25.0 °F 75% 29.99 in 10.0 mi West 13.8 mph - N/A   Overcast
9:53 AM 32.0 °F 23.0 °F 25.0 °F 75% 30.01 in 10.0 mi West 11.5 mph - N/A   Overcast
10:53 AM 34.0 °F 25.0 °F 25.0 °F 70% 30.01 in 10.0 mi West 12.7 mph - N/A   Overcast
11:53 AM 36.0 °F 28.0 °F 25.0 °F 64% 30.01 in 10.0 mi WNW 11.5 mph - N/A   Overcast
12:53 PM 37.0 °F 28.5 °F 24.1 °F 59% 30.01 in 10.0 mi WNW 13.8 mph - N/A   Overcast
1:53 PM 37.0 °F 28.5 °F 21.9 °F 54% 30.01 in 10.0 mi West 13.8 mph - N/A   Overcast
2:53 PM 36.0 °F 26.0 °F 23.0 °F 59% 30.02 in 10.0 mi WNW 17.3 mph 24.2 mph N/A   Overcast
3:53 PM 36.0 °F 25.6 °F 21.9 °F 57% 30.05 in 10.0 mi WNW 18.4 mph 25.3 mph N/A   Overcast
4:53 PM 35.1 °F 24.1 °F 21.9 °F 59% 30.06 in 10.0 mi WNW 19.6 mph 24.2 mph N/A   Overcast
5:53 PM 35.1 °F 27.4 °F 23.0 °F 61% 30.07 in 10.0 mi WNW 10.4 mph - N/A   Overcast
6:53 PM 32.0 °F 18.9 °F 21.0 °F 64% 30.10 in 10.0 mi NW 24.2 mph 34.5 mph N/A   Overcast
7:53 PM 30.0 °F 18.3 °F 18.0 °F 61% 30.12 in 10.0 mi NW 17.3 mph 28.8 mph N/A   Overcast
8:00 PM 30.2 °F 18.1 °F 17.6 °F 60% 30.05 in 10.0 mi NW 18.4 mph 25.3 mph N/A   Overcast
8:48 PM 30.2 °F 18.5 °F 17.6 °F 60% 30.05 in 10.0 mi NW 17.3 mph 25.3 mph N/A   Overcast
8:53 PM 28.9 °F 16.9 °F 17.1 °F 61% 30.12 in 10.0 mi NW 17.3 mph 25.3 mph N/A   Overcast
9:53 PM 28.0 °F 16.1 °F 17.1 °F 63% 30.12 in 10.0 mi NNW 16.1 mph 28.8 mph N/A   Overcast
10:53 PM 27.0 °F 15.6 °F 17.1 °F 66% 30.13 in 10.0 mi NW 13.8 mph 21.9 mph N/A   Overcast
11:53 PM 27.0 °F 16.7 °F 17.1 °F 66% 30.14 in 10.0 mi NW 11.5 mph 20.7 mph N/A   Overcast